Time,TemperatureF,DewpointF,PressureIn,WindDirection,WindDirectionDegrees,WindSpeedMPH,WindSpeedGustMPH,Humidity,HourlyPrecipIn,Conditions,Clouds,dailyrainin,SoftwareType,DateUTC
2013-05-16 00:03:00,47.0,-99.9,-100.00,North,-999,-999.0,-999.0,-999,0.00,,,0.18,,2013-05-16 04:03:00,
2013-05-16 00:13:00,47.0,-99.9,-100.00,North,-999,-999.0,-999.0,-999,0.00,,,0.18,,2013-05-16 04:13:00,
2013-05-16 00:43:00,45.0,-99.9,-100.00,North,-999,-999.0,-999.0,-999,0.00,,,0.18,,2013-05-16 04:43:00,
2013-05-16 00:53:00,45.0,-99.9,-100.00,North,-999,-999.0,-999.0,-999,0.00,,,0.18,,2013-05-16 04:53:00,
2013-05-16 01:03:00,45.0,-99.9,-100.00,North,-999,-999.0,-999.0,-999,0.00,,,0.18,,2013-05-16 05:03:00,
2013-05-16 01:12:00,45.0,-99.9,-100.00,North,-999,-999.0,-999.0,-999,0.00,,,0.18,,2013-05-16 05:12:00,
2013-05-16 01:42:00,43.0,-99.9,-100.00,North,-999,-999.0,-999.0,-999,0.00,,,0.18,,2013-05-16 05:42:00,
2013-05-16 01:52:00,43.0,-99.9,-100.00,North,-999,-999.0,-999.0,-999,0.00,,,0.18,,2013-05-16 05:52:00,
2013-05-16 02:02:00,43.0,-99.9,-100.00,North,-999,-999.0,-999.0,-999,0.00,,,0.18,,2013-05-16 06:02:00,
2013-05-16 02:13:00,43.0,-99.9,-100.00,North,-999,-999.0,-999.0,-999,0.00,,,0.18,,2013-05-16 06:13:00,
2013-05-16 02:43:00,40.0,-99.9,-100.00,North,-999,-999.0,-999.0,-999,0.00,,,-99.99,,2013-05-16 06:43:00,
2013-05-16 02:53:00,40.0,-99.9,-100.00,North,-999,-999.0,-999.0,-999,0.00,,,-99.99,,2013-05-16 06:53:00,
2013-05-16 03:02:00,40.0,-99.9,-100.00,North,-999,-999.0,-999.0,-999,0.00,,,-99.99,,2013-05-16 07:02:00,
2013-05-16 03:12:00,40.0,-99.9,-100.00,North,-999,-999.0,-999.0,-999,0.00,,,-99.99,,2013-05-16 07:12:00,
2013-05-16 03:44:00,43.0,-99.9,-100.00,North,-999,-999.0,-999.0,-999,0.00,,,-99.99,,2013-05-16 07:44:00,
2013-05-16 03:54:00,43.0,-99.9,-100.00,North,-999,-999.0,-999.0,-999,0.00,,,-99.99,,2013-05-16 07:54:00,
2013-05-16 04:04:00,43.0,-99.9,-100.00,North,-999,-999.0,-999.0,-999,0.00,,,-99.99,,2013-05-16 08:04:00,
2013-05-16 04:13:00,43.0,-99.9,-100.00,North,-999,-999.0,-999.0,-999,0.00,,,-99.99,,2013-05-16 08:13:00,
2013-05-16 04:45:00,44.0,-99.9,-100.00,North,-999,-999.0,-999.0,-999,0.00,,,0.18,,2013-05-16 08:45:00,
2013-05-16 04:55:00,44.0,-99.9,-100.00,North,-999,-999.0,-999.0,-999,0.00,,,0.18,,2013-05-16 08:55:00,
2013-05-16 05:04:00,44.0,-99.9,-100.00,North,-999,-999.0,-999.0,-999,0.00,,,0.18,,2013-05-16 09:04:00,
2013-05-16 05:14:00,44.0,-99.9,-100.00,North,-999,-999.0,-999.0,-999,0.00,,,0.18,,2013-05-16 09:14:00,
2013-05-16 05:15:00,43.0,-99.9,-100.00,North,-999,-999.0,-999.0,-999,0.00,,,0.18,,2013-05-16 09:15:00,
2013-05-16 05:45:00,43.0,-99.9,-100.00,North,-999,-999.0,-999.0,-999,0.00,,,0.18,,2013-05-16 09:45:00,
2013-05-16 05:56:00,43.0,-99.9,-100.00,North,-999,-999.0,-999.0,-999,0.00,,,0.18,,2013-05-16 09:56:00,
2013-05-16 06:05:00,43.0,-99.9,-100.00,North,-999,-999.0,-999.0,-999,0.00,,,0.18,,2013-05-16 10:05:00,
2013-05-16 06:15:00,45.0,-99.9,-100.00,North,-999,-999.0,-999.0,-999,0.00,,,0.18,,2013-05-16 10:15:00,
2013-05-16 06:45:00,45.0,-99.9,-100.00,North,-999,-999.0,-999.0,-999,0.00,,,0.18,,2013-05-16 10:45:00,
2013-05-16 06:57:00,45.0,-99.9,-100.00,North,-999,-999.0,-999.0,-999,0.00,,,0.18,,2013-05-16 10:57:00,
2013-05-16 07:06:00,45.0,-99.9,-100.00,North,-999,-999.0,-999.0,-999,0.00,,,0.18,,2013-05-16 11:06:00,
2013-05-16 07:46:00,53.0,-99.9,-100.00,North,-999,-999.0,-999.0,-999,0.00,,,0.18,,2013-05-16 11:46:00,
2013-05-16 07:57:00,53.0,-99.9,-100.00,North,-999,-999.0,-999.0,-999,0.00,,,0.18,,2013-05-16 11:57:00,
2013-05-16 08:14:00,53.0,-99.9,-100.00,North,-999,-999.0,-999.0,-999,0.00,,,0.18,,2013-05-16 12:14:00,
2013-05-16 08:45:00,56.0,-99.9,-100.00,North,-999,-999.0,-999.0,-999,0.00,,,0.18,,2013-05-16 12:45:00,
2013-05-16 08:53:00,56.0,-99.9,-100.00,North,-999,-999.0,-999.0,-999,0.00,,,0.18,,2013-05-16 12:53:00,
2013-05-16 09:05:00,56.0,-99.9,-100.00,North,-999,-999.0,-999.0,-999,0.00,,,0.18,,2013-05-16 13:05:00,
2013-05-16 09:12:00,56.0,-99.9,-100.00,North,-999,-999.0,-999.0,-999,0.00,,,0.18,,2013-05-16 13:12:00,
2013-05-16 09:15:00,60.0,-99.9,-100.00,North,-999,-999.0,-999.0,-999,0.00,,,0.18,,2013-05-16 13:15:00,
2013-05-16 09:44:00,60.0,-99.9,-100.00,North,-999,-999.0,-999.0,-999,0.00,,,0.18,,2013-05-16 13:44:00,
2013-05-16 09:55:00,60.0,-99.9,-100.00,North,-999,-999.0,-999.0,-999,0.00,,,0.18,,2013-05-16 13:55:00,
2013-05-16 10:05:00,60.0,-99.9,-100.00,North,-999,-999.0,-999.0,-999,0.00,,,0.18,,2013-05-16 14:05:00,
2013-05-16 10:15:00,62.0,-99.9,-100.00,North,-999,-999.0,-999.0,-999,0.00,,,0.18,,2013-05-16 14:15:00,
2013-05-16 10:47:00,62.0,-99.9,-100.00,North,-999,-999.0,-999.0,-999,0.00,,,0.18,,2013-05-16 14:47:00,
2013-05-16 10:56:00,62.0,-99.9,-100.00,North,-999,-999.0,-999.0,-999,0.00,,,0.18,,2013-05-16 14:56:00,
2013-05-16 11:09:00,62.0,-99.9,-100.00,North,-999,-999.0,-999.0,-999,0.00,,,0.18,,2013-05-16 15:09:00,
2013-05-16 11:15:00,64.0,-99.9,-100.00,North,-999,-999.0,-999.0,-999,0.00,,,0.18,,2013-05-16 15:15:00,
2013-05-16 11:50:00,64.0,-99.9,-100.00,North,-999,-999.0,-999.0,-999,0.00,,,0.18,,2013-05-16 15:50:00,
2013-05-16 12:01:00,64.0,-99.9,-100.00,North,-999,-999.0,-999.0,-999,0.00,,,0.18,,2013-05-16 16:01:00,
2013-05-16 12:10:00,64.0,-99.9,-100.00,North,-999,-999.0,-999.0,-999,0.00,,,0.18,,2013-05-16 16:10:00,
2013-05-16 12:15:00,65.0,-99.9,-100.00,North,-999,-999.0,-999.0,-999,0.00,,,0.18,,2013-05-16 16:15:00,
2013-05-16 12:51:00,65.0,-99.9,-100.00,North,-999,-999.0,-999.0,-999,0.00,,,0.18,,2013-05-16 16:51:00,
2013-05-16 13:01:00,65.0,-99.9,-100.00,North,-999,-999.0,-999.0,-999,0.00,,,0.18,,2013-05-16 17:01:00,
2013-05-16 13:11:00,65.0,-99.9,-100.00,North,-999,-999.0,-999.0,-999,0.00,,,0.18,,2013-05-16 17:11:00,
2013-05-16 13:15:00,66.0,-99.9,-100.00,North,-999,-999.0,-999.0,-999,0.00,,,0.18,,2013-05-16 17:15:00,
2013-05-16 14:11:00,66.0,-99.9,-100.00,North,-999,-999.0,-999.0,-999,0.00,,,0.18,,2013-05-16 18:11:00,
2013-05-16 14:15:00,69.0,-99.9,-100.00,North,-999,-999.0,-999.0,-999,0.00,,,0.18,,2013-05-16 18:15:00,
2013-05-16 15:11:00,69.0,-99.9,-100.00,North,-999,-999.0,-999.0,-999,0.00,,,0.18,,2013-05-16 19:11:00,
2013-05-16 15:15:00,66.0,-99.9,-100.00,North,-999,-999.0,-999.0,-999,0.00,,,0.18,,2013-05-16 19:15:00,
2013-05-16 16:15:00,61.0,-99.9,-100.00,North,-999,-999.0,-999.0,-999,0.00,,,0.18,,2013-05-16 20:15:00,
2013-05-16 16:51:00,61.0,-99.9,-100.00,North,-999,-999.0,-999.0,-999,0.00,,,0.18,,2013-05-16 20:51:00,
2013-05-16 17:01:00,61.0,-99.9,-100.00,North,-999,-999.0,-999.0,-999,0.00,,,0.18,,2013-05-16 21:01:00,
2013-05-16 17:15:00,57.0,-99.9,-100.00,North,-999,-999.0,-999.0,-999,0.00,,,0.18,,2013-05-16 21:15:00,
2013-05-16 17:51:00,57.0,-99.9,-100.00,North,-999,-999.0,-999.0,-999,0.00,,,0.18,,2013-05-16 21:51:00,
2013-05-16 18:08:00,57.0,-99.9,-100.00,North,-999,-999.0,-999.0,-999,0.00,,,0.18,,2013-05-16 22:08:00,
2013-05-16 18:15:00,55.0,-99.9,-100.00,North,-999,-999.0,-999.0,-999,0.00,,,0.09,,2013-05-16 22:15:00,
2013-05-16 18:51:00,55.0,-99.9,-100.00,North,-999,-999.0,-999.0,-999,0.00,,,0.09,,2013-05-16 22:51:00,
2013-05-16 19:01:00,55.0,-99.9,-100.00,North,-999,-999.0,-999.0,-999,0.00,,,0.09,,2013-05-16 23:01:00,
2013-05-16 19:07:00,55.0,-99.9,-100.00,North,-999,-999.0,-999.0,-999,0.00,,,0.09,,2013-05-16 23:07:00,
2013-05-16 19:45:00,53.0,-99.9,-100.00,North,-999,-999.0,-999.0,-999,0.00,,,0.01,,2013-05-16 23:45:00,
2013-05-16 19:54:00,53.0,-99.9,-100.00,North,-999,-999.0,-999.0,-999,0.00,,,0.01,,2013-05-16 23:54:00,
2013-05-16 20:03:00,53.0,-99.9,-100.00,North,-999,-999.0,-999.0,-999,0.00,,,0.01,,2013-05-17 00:03:00,
2013-05-16 20:14:00,53.0,-99.9,-100.00,North,-999,-999.0,-999.0,-999,0.00,,,0.01,,2013-05-17 00:14:00,
2013-05-16 20:44:00,51.0,-99.9,-100.00,North,-999,-999.0,-999.0,-999,0.00,,,0.00,,2013-05-17 00:44:00,
2013-05-16 20:53:00,51.0,-99.9,-100.00,North,-999,-999.0,-999.0,-999,0.00,,,0.00,,2013-05-17 00:53:00,
2013-05-16 21:03:00,51.0,-99.9,-100.00,North,-999,-999.0,-999.0,-999,0.00,,,0.00,,2013-05-17 01:03:00,
2013-05-16 21:12:00,51.0,-99.9,-100.00,North,-999,-999.0,-999.0,-999,0.00,,,0.00,,2013-05-17 01:12:00,
2013-05-16 21:44:00,51.0,-99.9,-100.00,North,-999,-999.0,-999.0,-999,0.00,,,0.00,,2013-05-17 01:44:00,
2013-05-16 21:53:00,51.0,-99.9,-100.00,North,-999,-999.0,-999.0,-999,0.00,,,0.00,,2013-05-17 01:53:00,
2013-05-16 22:02:00,51.0,-99.9,-100.00,North,-999,-999.0,-999.0,-999,0.00,,,0.00,,2013-05-17 02:02:00,
2013-05-16 22:12:00,51.0,-99.9,-100.00,North,-999,-999.0,-999.0,-999,0.00,,,0.00,,2013-05-17 02:12:00,
2013-05-16 22:42:00,49.0,-99.9,-100.00,North,-999,-999.0,-999.0,-999,0.00,,,0.00,,2013-05-17 02:42:00,
2013-05-16 22:53:00,49.0,-99.9,-100.00,North,-999,-999.0,-999.0,-999,0.00,,,0.00,,2013-05-17 02:53:00,
2013-05-16 23:02:00,49.0,-99.9,-100.00,North,-999,-999.0,-999.0,-999,0.00,,,0.00,,2013-05-17 03:02:00,
2013-05-16 23:12:00,49.0,-99.9,-100.00,North,-999,-999.0,-999.0,-999,0.00,,,0.00,,2013-05-17 03:12:00,
2013-05-16 23:43:00,48.0,-99.9,-100.00,North,-999,-999.0,-999.0,-999,0.00,,,0.00,,2013-05-17 03:43:00,
2013-05-16 23:53:00,48.0,-99.9,-100.00,North,-999,-999.0,-999.0,-999,0.00,,,0.00,,2013-05-17 03:53:00,